Terminal Aerodrome Forecast
Issued by NWS Buffalo, NY

Home | Current Version | Previous Version | Text Only | Print | Product List | Glossary On
Versions: 1 2 3 4 5 6 7 8 9 10 11 12 13 14 15 16 17 18 19 20 21 22 23 24 25 26 27 28 29 30 31 32 33 34 35 36 37 38 39 40 41 42 43 44 45 46 47 48 49 50
000
FTUS41 KBUF 101734
TAFBUF
TAF
KBUF 101734Z 1018/1118 27012KT P6SM -SHSN FEW015 OVC025
     FM110600 27007KT P6SM SCT025 BKN050
     FM111300 27011KT 3/4SM -SHSN SCT003 OVC011
     FM111500 24015G21KT 5SM -SHSN BLSN SCT005 OVC015
     FM111700 27011KT 3/4SM -SHSN SCT003 OVC011=

USA.gov is the U.S. government's official web portal to all federal, state and local government web resources and services.